Aalborg, Denmark

1:55 AM CEST on May 25, 2017 (GMT +0200)
Aalborg

Weather History for EKYT - October, 2012

Change the Weather History Date:

Saturday, October 6, 2012

  Actual Average Record
Temperature  
Mean Temperature 48 °F -  
Max Temperature 56 °F 51 °F 64 °F (2006)
Min Temperature 40 °F 41 °F 37 °F (1998)
Degree Days  
Heating Degree Days 17    
Moisture  
Dew Point 45 °F    
Average Humidity 87    
Maximum Humidity 100    
Minimum Humidity 67    
Precipitation  
Precipitation 0.00 in - - ()
Sea Level Pressure  
Sea Level Pressure 29.62 in    
Wind  
Wind Speed 6 mph ()    
Max Wind Speed 15 mph    
Max Gust Speed -    
Visibility 6.9 miles    
Events Fog    
Averages and records for this station are not official NWS values.
T = Trace of Precipitation, MM = Missing Value Source: Averaged Metar Reports

Daily Weather History Graph

Daily Weather History Graph

Search for Another Location

Airport or City:

Trip Planner

Search our weather history database for the weather conditions in past years. The results will help you decide how hot, cold, wet, or windy it might be!

Date:

Astronomy

Oct. 06, 2012 Rise Set
Actual Time 7:35 AM CEST 6:40 PM CEST
Civil Twilight 6:56 AM CEST 7:18 PM CEST
Nautical Twilight 6:12 AM CEST 8:03 PM CEST
Astronomical Twilight 5:26 AM CEST 8:48 PM CEST
Moon 9:44 PM CEST (10/6) 2:15 PM CEST (10/6)
Length of Visible Light 12h 21m
Length of Day
11h 05m
Waning Gibbous, 68% of the Moon is Illuminated
Oct 6
Waning Gibbous
Oct 8
Last Quarter
Oct 15
New
Oct 22
First Quarter
Oct 29
Full

Hourly Weather History & Observations

Time (CEST) Temp. Windchill Dew Point Humidity Pressure Visibility Wind Dir Wind Speed Gust Speed Precip Events Conditions
12:20 AM 42.8 °F 41.1 °F 41.0 °F 93% 29.56 in 5.0 mi West 3.5 mph - N/A   Unknown
12:50 AM 44.6 °F 43.1 °F 42.8 °F 93% 29.56 in 5.0 mi West 3.5 mph - N/A   Unknown
1:20 AM 42.8 °F - 42.8 °F 100% 29.56 in 5.0 mi West 1.2 mph - N/A Fog Fog
1:50 AM 42.8 °F 41.1 °F 41.0 °F 93% 29.56 in 6.2 mi SSW 3.5 mph - N/A Fog Shallow Fog
2:00 AM 42 °F - 41 °F 94% 29.59 in 6 mi SSW 3.5 mph - - Fog Patches of Fog
2:20 AM 44.6 °F 43.1 °F 42.8 °F 93% 29.59 in 6.2 mi SW 3.5 mph - N/A Fog Shallow Fog
2:50 AM 42.8 °F 41.1 °F 41.0 °F 93% 29.59 in 6.2 mi South 3.5 mph - N/A Fog Shallow Fog
3:20 AM 41.0 °F 39.0 °F 41.0 °F 100% 29.59 in 6.2 mi SSW 3.5 mph - N/A Fog Shallow Fog
3:50 AM 41.0 °F 38.0 °F 41.0 °F 100% 29.59 in 6.2 mi SSW 4.6 mph - N/A   Partly Cloudy
4:20 AM 41.0 °F 39.0 °F 41.0 °F 100% 29.59 in 6.2 mi SSW 3.5 mph - N/A   Partly Cloudy
4:50 AM 41.0 °F 39.0 °F 39.2 °F 93% 29.59 in - SSW 3.5 mph - N/A   Clear
5:00 AM 44 °F - 43 °F 93% 29.61 in 6 mi SSW 4.6 mph - -   Clear
5:20 AM 44.6 °F 43.1 °F 44.6 °F 100% 29.59 in - SW 3.5 mph - N/A   Clear
5:50 AM 44.6 °F 43.1 °F 42.8 °F 93% 29.59 in 6.2 mi South 3.5 mph - N/A   Scattered Clouds
6:20 AM 44.6 °F 42.2 °F 44.6 °F 100% 29.59 in 6.2 mi SSW 4.6 mph - N/A   Mostly Cloudy
6:50 AM 44.6 °F 41.4 °F 42.8 °F 93% 29.59 in 6.2 mi SSW 5.8 mph - N/A   Mostly Cloudy
7:20 AM 44.6 °F 42.2 °F 42.8 °F 93% 29.59 in 6.2 mi SW 4.6 mph - N/A   Mostly Cloudy
7:50 AM 44.6 °F 43.1 °F 44.6 °F 100% 29.59 in 6.2 mi WSW 3.5 mph - N/A   Mostly Cloudy
8:00 AM 45 °F - 44 °F 93% 29.60 in 9 mi WSW 4.6 mph - -   Partly Cloudy
8:20 AM 46.4 °F 44.3 °F 44.6 °F 93% 29.59 in 6.2 mi WSW 4.6 mph - N/A   Scattered Clouds
8:50 AM 42.8 °F 39.3 °F 42.8 °F 100% 29.59 in 6.2 mi SSW 5.8 mph - N/A   Scattered Clouds
9:20 AM 46.4 °F - 44.6 °F 93% 29.59 in 6.2 mi SSW 2.3 mph - N/A   Mostly Cloudy
9:50 AM 50.0 °F - 48.2 °F 94% 29.59 in 6.2 mi WSW 5.8 mph - N/A   Mostly Cloudy
10:20 AM 50.0 °F - 48.2 °F 94% 29.59 in 6.2 mi West 5.8 mph - N/A   Mostly Cloudy
10:50 AM 50.0 °F - 48.2 °F 94% 29.59 in 6.2 mi WSW 8.1 mph - N/A   Mostly Cloudy
11:00 AM 51 °F - 48 °F 85% 29.62 in 12 mi WSW 8.1 mph - -   Partly Cloudy
11:20 AM 50.0 °F - 48.2 °F 94% 29.62 in 6.2 mi WSW 10.4 mph - N/A   Mostly Cloudy
11:50 AM 51.8 °F - 48.2 °F 88% 29.59 in 6.2 mi WSW 9.2 mph - N/A   Mostly Cloudy
12:20 PM 51.8 °F - 48.2 °F 88% 29.62 in 6.2 mi WSW 10.4 mph - N/A   Mostly Cloudy
12:50 PM 53.6 °F - 48.2 °F 82% 29.62 in 6.2 mi WSW 9.2 mph - N/A   Mostly Cloudy
1:20 PM 53.6 °F - 50.0 °F 88% 29.62 in 6.2 mi WSW 10.4 mph - N/A   Mostly Cloudy
1:50 PM 55.4 °F - 46.4 °F 72% 29.62 in 6.2 mi West 8.1 mph - N/A   Mostly Cloudy
2:00 PM 55 °F - 47 °F 68% 29.63 in 16 mi Calm Calm - -   Partly Cloudy
2:20 PM 55.4 °F - 46.4 °F 72% 29.62 in 6.2 mi West 11.5 mph - N/A   Scattered Clouds
2:50 PM 53.6 °F - 46.4 °F 77% 29.62 in 6.2 mi West 12.7 mph - N/A   Scattered Clouds
3:20 PM 55.4 °F - 46.4 °F 72% 29.62 in 6.2 mi West 11.5 mph - N/A   Scattered Clouds
3:50 PM 55.4 °F - 46.4 °F 72% 29.62 in 6.2 mi West 13.8 mph - N/A   Scattered Clouds
4:20 PM 55.4 °F - 44.6 °F 67% 29.62 in 6.2 mi WNW 13.8 mph - N/A   Scattered Clouds
4:50 PM 53.6 °F - 44.6 °F 72% 29.65 in 6.2 mi West 13.8 mph - N/A   Partly Cloudy
5:00 PM 53 °F - 45 °F 67% 29.65 in 16 mi West 12.7 mph - -   Scattered Clouds
5:20 PM 53.6 °F - 44.6 °F 72% 29.65 in 6.2 mi West 13.8 mph - N/A   Partly Cloudy
5:50 PM 53.6 °F - 44.6 °F 72% 29.65 in 6.2 mi West 12.7 mph - N/A   Partly Cloudy
6:20 PM 51.8 °F - 44.6 °F 76% 29.65 in 6.2 mi West 10.4 mph - N/A   Partly Cloudy
6:50 PM 50.0 °F - 44.6 °F 82% 29.65 in 6.2 mi West 10.4 mph - N/A   Partly Cloudy
7:20 PM 50.0 °F - 44.6 °F 82% 29.65 in 6.2 mi WSW 11.5 mph - N/A   Partly Cloudy
7:50 PM 50.0 °F - 46.4 °F 87% 29.65 in 6.2 mi WSW 12.7 mph - N/A   Partly Cloudy
8:00 PM 49 °F - 45 °F 81% 29.67 in 12 mi WSW 13.8 mph - -   Scattered Clouds
8:20 PM 50.0 °F - 46.4 °F 87% 29.65 in 6.2 mi SW 12.7 mph - N/A   Partly Cloudy
8:50 PM 50.0 °F - 46.4 °F 87% 29.65 in 6.2 mi WSW 13.8 mph - N/A   Partly Cloudy
9:20 PM 48.2 °F - 44.6 °F 87% 29.65 in 6.2 mi SW 12.7 mph - N/A   Partly Cloudy
9:50 PM 48.2 °F - 46.4 °F 93% 29.65 in 6.2 mi SW 13.8 mph - N/A   Scattered Clouds
10:20 PM 50.0 °F - 46.4 °F 87% 29.65 in 6.2 mi WSW 15.0 mph - N/A   Scattered Clouds
10:50 PM 48.2 °F - 46.4 °F 93% 29.65 in 6.2 mi West 15.0 mph - N/A   Scattered Clouds
11:00 PM 49 °F - 45 °F 83% 29.68 in 12 mi WSW 13.8 mph - -   Partly Cloudy
11:20 PM 48.2 °F - 44.6 °F 87% 29.65 in 6.2 mi WSW 11.5 mph - N/A   Scattered Clouds
11:50 PM 48.2 °F - 42.8 °F 82% 29.65 in 6.2 mi West 11.5 mph - N/A   Partly Cloudy